Location: Unspecified
(40.9447°N, 78.9903°W)
Time: 02:50:31
(UTC-05:00)

CZ-3 Stage 3 - Visible Passes

Search period start: 27 January 2021 00:00
Search period end: 06 February 2021 00:00
Orbit: 403 x 34782 km, 31.0° (Epoch: 27 January)

Date Brightness Start Highest point End Pass type
(mag) Time Alt. Az. Time Alt. Az. Time Alt. Az.
27 Jan 7.5 18:06:58 10° WSW 18:27:21 72° S 03:05:11 10° S visible
28 Jan 7.1 14:32:15 10° S 21:05:36 18° ESE 22:49:48 10° SE visible
29 Jan 9.2 01:57:51 10° WNW 02:38:31 13° W 03:38:48 10° W visible
29 Jan 8.5 21:37:47 10° W 22:50:17 56° SW 04:39:16 10° WSW visible
30 Jan 7.5 17:55:55 10° WSW 18:15:49 72° S 02:52:44 10° S visible
31 Jan 7.1 14:21:09 10° S 20:53:57 17° ESE 22:34:54 10° SE visible
01 Feb 9.3 01:46:50 10° WNW 02:26:22 13° W 03:24:36 10° W visible
01 Feb 8.5 21:26:38 10° W 22:37:32 56° SW 04:25:02 10° WSW visible
02 Feb 7.5 17:44:52 10° WSW 18:04:18 71° S 02:40:15 10° S visible
03 Feb 7.1 14:10:05 10° S 20:42:18 17° ESE 22:19:38 10° SE visible
04 Feb 9.3 01:35:56 10° W 02:14:15 13° W 03:10:15 10° W visible
04 Feb 8.6 21:15:29 10° W 22:24:48 55° SW 04:10:47 10° WSW visible
